CAPE
255 302 349 234 75 19 0 0 0 0 0 0 2 0 0 0 4 5 0 0 0 0 0 7 28 31 57 52 57 95 89 104 24 184 70 31 3 9 19 30 37 81 56
0 0 2 19 1 0 0 0 0 0 0 0 0 0 0 0 0 0 0 0 0 0 0 0 6 6 0 1 21 43 80 112 107 69 69 62 10 18 11 14 1 12 13
0 0 0 0 0 0 0 0 0 0 0 0 0 0 0 0 0 0 0 0 0 0 0 0 0 0 10 31 30 32 76 119 98 150 80 113 60 82 77 14 0 0 0
0 0 0 0 0 0 0 0 0 0 0 0 0 0 0 0 0 0 0 0 0 0 0 0 0 0 0 1 35 65 40 22 56 164 191 149 159 173 73 3 4 2 10
68 78 37 0 0 0 0 0 0 0 0 0 0 0 0 0 0 0 0 0 0 0 0 0 0 0 29 231 315 235 43 26 63 48 170 120 120 120 96 173 76 38 0
150 92 0 0 0 0 0 0 0 0 0 0 0 0 0 0 0 0 0 0 0 0 0 0 0 0 0 0 0 3 33 48 57 34 79 69 126 109 140 127 130 77 9
0 0 0 0 0 0 2 0 0 0 0 0 0 0 0 0 0 0 0 0 0 0 0 0 0 0 0 0 0 0 1 0 15 49 48 68 31 74 69 100 101 91 33
0 0 0 0 10 8 4 0 0 0 0 0 0 0 0 0 0 0 0 0 0 0 0 0 0 0 0 0 0 0 0 0 0 0 32 41 26 22 2 37 70 76 48
0 0 0 0 0 0 0 0 0 0 0 0 0 0 0 0 0 0 0 0 0 0 0 0 0 0 0 0 0 5 2 1 0 0 0 0 0 0 1 8 7 21 108
0 0 0 0 0 0 0 0 0 0 0 0 0 0 0 0 0 0 0 0 0 0 0 0 0 0 0 0 4 1 1 1 1 0 0 0 0 0 0 7 100 80 124
0 0 0 0 0 0 0 0 0 0 0 0 0 0 0 0 0 0 0 0 0 0 0 0 0 0 0 0 0 1 1 2 2 3 5 4 3 5 5 12 11 56 33
0 0 0 0 0 0 0 0 0 0 0 0 0 0 0 0 0 0 0 0 0 0 0 0 0 0 0 0 0 0 1 0 2 3 3 2 2 7 8 13 16 9 47
0 0 0 0 0 0 0 0 0 0 0 0 0 0 0 0 0 0 0 0 0 0 0 0 0 0 0 0 0 0 0 1 1 0 1 4 12 0 1 1 7 13 8
0 0 0 0 0 0 0 0 0 0 0 0 0 0 0 0 0 0 0 0 0 0 0 0 0 0 0 0 0 1 3 20 33 15 5 23 50 21 24 16 29 58 16
0 0 0 0 0 0 0 0 0 0 0 0 0 0 0 0 0 0 0 0 0 0 0 0 0 0 0 0 0 0 8 13 12 16 19 8 4 45 69 61 51 44 7
0 0 0 0 0 0 0 0 0 0 0 0 0 0 0 0 0 0 0 0 0 0 0 0 0 0 0 0 0 0 0 1 1 2 6 38 12 1 10 29 61 115 37
0 0 0 0 0 0 0 0 0 0 0 0 0 0 0 0 0 0 0 0 0 0 0 0 0 0 0 0 0 0 0 0 0 0 0 25 13 6 8 4 29 71 74
0 0 0 0 0 0 0 0 0 0 0 0 0 0 0 0 0 0 0 0 0 0 0 0 0 0 1 1 0 0 1 0 0 0 0 0 50 13 26 5 22 29 2
0 0 0 0 0 0 0 0 0 0 0 0 0 0 0 0 0 0 0 0 0 0 0 0 0 0 0 0 0 0 0 0 0 0 0 0 0 19 1 3 7 0 1
0 0 0 0 0 0 0 0 0 0 0 0 0 0 0 0 0 0 0 0 0 0 0 0 0 0 0 0 0 0 0 0 0 0 0 0 0 2 11 16 4 2 2
0 0 0 0 0 0 0 0 0 0 0 0 0 0 0 0 0 0 0 0 0 0 0 0 0 0 0 0 0 0 0 0 0 0 0 0 0 0 0 0 3 11 1
0 0 0 0 0 0 0 0 0 0 0 0 0 0 0 0 0 0 0 0 0 0 0 0 0 0 0 0 0 0 0 0 0 0 0 0 0 0 0 0 0 1 1
6 1 0 0 0 0 0 0 0 0 0 0 0 0 0 0 0 0 0 0 0 0 0 0 0 0 0 0 0 0 0 0 0 0 0 0 0 0 0 0 0 1 2
0 7 6 0 0 0 0 0 0 0 0 0 0 0 0 0 0 0 0 0 0 0 0 0 0 0 0 0 0 0 0 0 0 0 0 0 0 0 0 0 0 0 0
0 0 0 0 0 0 0 0 0 0 0 0 0 0 0 0 0 0 0 0 0 0 0 0 0 0 0 0 0 0 0 0 0 0 0 0 0 0 0 0 0 0 0
0 0 0 0 0 0 0 0 0 0 0 0 0 0 0 0 0 0 0 0 0 0 0 0 0 0 0 0 0 0 0 0 0 0 0 11 1 1 7 1 0 0 0
CIN
-348 -299 -258 -265 -302 -317 0 0 0 0 0 0 -64 0 0 -70 -218 -197 -8 0 0 0 0 -76 -67 -64 -56 -64 -49 -22 -17 -8 -5 0 -14 -39 0 -13 -46 -5 -12 -4 -6
-29 0 -20 -314 -18 -10 0 0 0 0 0 0 0 0 0 0 0 0 0 0 0 0 0 -5 -91 -96 -5 -5 -75 -58 -39 -35 -8 -3 -6 -16 -49 -43 -31 -44 -1 -4 -2
0 0 0 0 0 0 0 0 0 0 0 0 0 0 0 0 0 0 0 0 0 0 0 0 0 0 -123 -122 -110 -96 -71 -48 -48 -5 -7 -7 -21 -17 -6 -11 -3 0 0
0 0 0 0 0 0 0 0 0 0 0 0 0 0 0 0 0 0 0 0 0 0 0 0 0 0 0 -58 -96 -83 -88 -77 -65 -31 -15 -10 -5 -4 -23 -3 -27 0 -9
-301 -283 -311 0 0 0 0 0 0 0 0 0 0 0 0 0 0 0 0 0 0 0 0 0 0 0 -98 -69 -35 -52 -88 -90 -57 -55 -18 -29 -28 -29 -22 -3 -4 0 0
-256 -263 0 0 0 0 0 0 0 0 0 0 0 0 0 0 0 0 0 0 0 0 0 0 0 0 0 0 0 -107 -109 -77 -57 -51 -26 -37 -39 -49 -48 -27 -4 0 -5
-14 0 0 0 0 0 -69 0 0 0 0 0 0 0 0 0 0 0 0 0 0 0 0 0 0 0 0 0 0 0 -134 0 -73 -58 -44 -43 -49 -62 -48 -31 -21 -1 -4
0 0 0 0 -180 -169 -164 0 0 0 0 0 0 0 0 0 0 0 0 0 0 0 0 0 0 0 0 0 0 0 0 0 0 0 -55 -60 -69 -80 -5 -37 -24 -14 -5
0 0 0 0 0 0 0 0 0 0 0 0 0 0 0 0 0 0 0 0 0 0 0 0 0 0 0 0 0 0 0 0 0 0 0 0 0 0 0 0 -35 -26 -11
0 0 0 0 0 0 0 0 0 0 0 0 0 0 0 0 0 0 0 0 0 0 0 0 0 0 0 0 0 0 0 0 0 0 0 0 0 0 0 0 -33 -4 0
0 0 0 0 0 0 0 0 0 0 0 0 0 0 0 0 0 0 0 0 0 0 0 0 0 0 0 0 0 0 0 0 0 0 0 0 0 0 0 -12 0 -20 -7
0 0 0 0 0 0 0 0 0 0 0 0 0 0 0 0 0 0 0 0 0 0 0 0 0 0 0 0 0 0 0 0 0 0 0 0 0 0 -3 0 -9 0 -22
0 0 0 0 0 0 0 0 0 0 0 0 0 0 0 0 0 0 0 0 0 0 0 0 0 0 0 0 0 0 0 -29 0 0 0 -1 -6 -14 -15 -1 0 0 0
0 0 0 0 0 0 0 0 0 0 0 0 0 0 0 0 0 0 0 0 0 0 0 0 0 0 0 0 0 -10 -6 -17 -6 -11 -8 -1 0 -2 -2 -7 -23 -27 0
0 0 0 0 0 0 0 0 0 0 0 0 0 0 0 0 0 0 0 0 0 0 0 0 0 0 0 0 0 0 -31 -43 -31 -18 -17 -15 -2 0 -1 -3 -14 -23 -1
0 0 0 0 0 0 0 0 0 0 0 0 0 0 0 0 0 0 0 0 0 0 0 0 0 0 0 0 0 0 0 0 0 0 -48 -5 0 0 0 -1 0 -3 -3
0 0 0 0 0 0 0 0 0 0 0 0 0 0 0 0 0 0 0 0 0 0 0 0 0 0 0 0 0 0 0 0 0 0 0 -12 -2 -1 -1 -2 -1 -7 -1
0 0 0 0 0 0 0 0 0 0 0 0 0 0 0 0 0 0 0 0 0 0 0 0 0 0 0 0 0 0 0 0 0 0 0 0 -2 -5 0 -1 0 0 0
0 0 0 0 0 0 0 0 0 0 0 0 0 0 0 0 0 0 0 0 0 0 0 0 0 0 0 0 0 0 0 0 0 0 0 0 0 0 -3 0 0 0 0
0 0 0 0 0 0 0 0 0 0 0 0 0 0 0 0 0 0 0 0 0 0 0 0 0 0 0 0 0 0 0 0 0 0 0 0 0 -11 -1 0 -1 -1 0
0 0 0 0 0 0 0 0 0 0 0 0 0 0 0 0 0 0 0 0 0 0 0 0 0 0 0 0 0 0 0 0 0 0 0 0 0 0 -22 0 -2 -2 0
0 0 0 0 0 0 0 0 0 0 0 0 0 0 0 0 0 0 0 0 0 0 0 0 0 0 0 0 0 0 0 0 0 0 0 0 0 0 0 0 0 0 0
-105 -49 0 0 0 0 0 0 0 0 0 0 0 0 0 0 0 0 0 0 0 0 0 0 0 0 0 0 0 0 0 0 0 0 0 0 0 0 0 0 0 0 0
-8 -104 -118 -2 0 0 0 0 0 0 0 0 0 0 0 0 0 0 0 0 0 0 0 0 0 0 0 0 0 0 0 0 0 0 0 0 0 0 0 0 0 0 0
0 0 0 0 0 0 0 0 0 0 0 0 0 0 0 0 0 0 0 0 0 0 0 0 0 0 0 0 0 0 0 0 0 0 0 0 0 0 0 0 0 0 0
0 0 0 0 0 0 0 0 0 0 0 0 0 0 0 0 0 0 0 0 0 0 0 0 0 0 0 0 0 0 0 0 0 0 -2 -26 -24 -18 -20 -12 0 0 0
Wind_Speed
7 4 4 4 5 4 3 2 3 2 3 2 4 3 3 3 3 3 3 3 3 4 3 3 5 3 3 4 3 4 6 5 7 5 3 2 5 10 8 8 8 10 9
6 4 4 5 5 5 3 3 4 5 5 5 5 5 4 4 4 5 4 4 3 4 5 5 6 4 6 5 3 6 5 6 4 9 6 4 7 7 8 9 7 6 6
6 5 5 5 5 5 5 5 6 5 5 4 4 4 2 3 3 2 1 2 3 4 4 5 6 5 6 4 5 5 5 5 5 4 5 3 3 4 5 7 5 5 4
6 4 5 5 5 5 6 6 5 5 6 4 4 2 1 2 3 3 3 3 4 5 5 5 6 6 7 7 6 7 5 5 6 7 5 6 5 5 4 5 5 4 7
6 6 4 4 5 6 6 5 5 5 5 3 3 3 2 2 2 3 4 4 4 6 6 5 4 7 12 9 5 7 6 4 5 6 6 4 5 4 5 4 5 5 4
6 6 5 6 6 5 5 5 4 2 4 3 1 2 2 3 6 6 3 3 4 5 6 6 6 10 10 12 11 9 8 6 6 4 5 6 8 5 4 5 6 3 4
6 6 6 5 5 6 6 4 3 3 1 2 3 3 5 5 8 10 7 4 5 6 7 6 8 7 10 8 10 11 9 8 10 5 7 7 7 4 3 5 6 5 5
6 6 5 5 4 3 3 2 0 1 1 3 3 4 4 4 8 8 7 5 5 6 5 5 5 8 8 10 11 10 10 9 8 4 6 9 8 7 6 6 6 3 2
5 5 4 4 4 3 3 3 3 4 3 3 3 4 3 5 8 9 7 6 5 6 6 7 8 9 12 12 10 11 13 11 7 9 11 12 13 9 7 4 5 4 3
5 4 4 5 4 5 4 4 3 2 3 2 3 2 2 5 6 6 5 3 5 6 7 7 9 10 14 11 9 9 10 13 11 12 9 8 9 9 11 8 6 7 4
4 3 1 1 2 3 4 3 2 2 2 2 4 3 4 3 5 5 7 4 4 5 4 5 6 11 15 17 14 8 9 11 12 9 8 8 8 7 7 7 8 6 7
3 3 1 1 2 2 2 2 2 2 3 4 5 6 3 4 5 5 6 4 5 4 4 5 7 12 15 16 11 13 13 11 5 5 5 6 6 7 5 7 7 7 7
4 2 1 2 2 3 3 1 2 2 3 4 3 4 6 5 4 6 5 6 4 4 4 8 13 14 13 10 10 13 9 4 4 3 5 6 5 5 4 3 5 7 7
4 3 2 4 3 3 2 1 2 2 2 2 4 4 4 4 5 5 5 5 6 5 8 8 9 11 11 10 8 7 4 4 5 5 5 6 6 3 4 4 4 4 4
5 3 3 2 3 3 3 3 1 2 1 1 1 2 4 5 4 5 5 5 5 5 6 3 5 7 7 8 8 7 7 6 7 7 6 6 6 6 4 4 4 4 4
3 2 1 2 2 2 1 1 5 6 6 4 2 1 2 7 8 9 8 5 5 6 3 4 6 7 7 8 8 8 7 8 7 8 7 5 6 4 4 3 4 5 5
2 1 1 1 2 2 2 1 2 3 3 3 3 1 4 7 6 5 4 6 9 5 5 6 6 7 7 7 7 7 7 7 8 7 7 6 7 5 2 2 3 5 4
6 5 1 2 2 2 1 2 2 3 2 2 4 5 8 8 7 10 7 5 6 7 5 6 7 7 7 7 7 7 7 7 7 7 8 8 8 6 3 5 6 4 7
6 2 3 2 2 2 2 3 3 3 2 2 3 4 6 7 6 8 8 5 5 7 7 7 6 6 7 7 7 7 8 8 7 7 8 8 7 5 7 7 4 9 11
4 2 4 3 2 3 3 4 3 2 2 2 2 3 5 4 2 4 4 4 6 6 6 6 7 7 7 8 8 8 8 9 9 9 9 9 6 6 6 8 8 10 11
3 0 5 3 2 3 3 3 2 1 1 0 1 1 1 1 2 2 3 4 5 5 5 5 6 7 7 8 9 8 8 8 8 8 9 8 7 5 5 6 7 8 9
3 2 2 2 2 1 2 1 1 1 3 4 2 2 2 1 1 0 2 3 4 4 4 5 5 5 6 7 8 9 8 8 9 9 8 8 8 6 4 5 7 7 7
1 3 1 1 1 0 1 2 4 3 4 4 4 4 2 1 1 1 2 3 3 4 4 5 6 6 7 6 6 6 7 8 7 7 7 7 7 7 6 6 5 7 7
3 2 4 1 1 2 1 2 1 2 3 4 5 5 5 5 4 4 2 2 3 4 5 5 6 8 8 8 7 7 6 8 6 6 7 5 6 7 5 5 7 8 8
6 6 7 6 6 5 4 5 5 6 6 6 6 6 6 7 8 6 3 3 4 4 6 6 6 9 10 12 12 13 13 12 8 6 5 5 7 8 6 5 8 9 8
7 8 7 6 7 7 6 6 6 6 6 6 6 6 8 7 6 6 6 5 4 5 6 5 8 11 12 10 12 13 11 11 9 9 5 5 4 5 4 6 7 5 8
Wind_Direction
101 87 104 119 131 131 146 134 103 22 29 53 73 94 81 74 56 57 41 24 359 342 342 317 303 305 292 296 286 278 279 277 282 286 266 261 244 239 242 242 245 231 220
87 97 105 113 122 121 137 126 89 84 84 103 96 79 65 52 39 28 14 18 1 334 321 325 302 327 312 303 296 290 279 276 263 277 284 282 260 255 249 242 237 231 230
106 101 96 98 116 142 115 111 115 114 98 92 86 78 54 35 31 16 325 302 288 277 289 291 286 303 296 296 294 285 276 276 263 252 267 268 260 261 269 249 238 231 225
106 125 108 139 150 109 110 117 127 133 137 134 100 90 102 157 211 238 280 286 308 306 288 276 278 282 280 287 285 282 284 287 284 280 259 264 258 252 227 266 264 241 255
116 116 131 124 107 125 124 132 153 151 122 119 172 182 172 223 254 291 294 299 299 311 309 304 293 293 295 271 268 279 283 279 281 279 281 254 261 250 236 238 245 266 247
110 96 114 112 102 118 135 158 148 140 146 185 173 258 260 245 257 267 239 314 319 303 301 307 306 304 309 296 301 276 247 259 274 274 282 270 271 265 269 257 260 267 285
104 117 117 137 152 149 172 162 159 216 71 359 288 313 306 309 326 342 8 338 311 307 298 308 322 322 320 312 306 299 288 261 236 251 277 278 287 282 292 269 243 247 260
113 116 122 130 136 121 146 208 233 351 261 278 303 288 297 307 350 1 343 316 310 306 312 333 313 312 320 327 324 304 292 283 277 242 243 266 265 284 266 279 286 244 255
115 122 119 123 134 180 229 262 248 245 264 265 263 272 296 315 342 348 335 328 333 336 338 343 340 346 342 343 322 304 296 287 277 257 251 247 261 253 248 264 247 220 248
140 160 178 175 182 216 235 270 268 273 288 294 279 306 327 316 330 347 15 344 346 339 334 344 339 342 324 322 314 302 291 288 296 299 293 279 270 268 218 217 239 238 209
167 149 151 243 248 245 242 229 264 262 269 288 321 328 311 326 333 18 13 351 340 325 339 346 325 317 329 329 319 299 275 288 296 292 292 286 279 278 262 219 220 224 222
135 125 142 347 317 316 291 357 2 354 332 339 331 313 322 348 347 19 15 19 336 312 327 315 305 318 316 313 318 311 295 289 283 287 279 279 274 273 239 236 217 218 232
147 156 100 98 96 116 117 58 340 333 334 322 320 317 329 347 353 359 346 337 316 301 295 301 302 300 300 306 313 318 330 319 296 286 276 282 269 254 251 233 229 220 227
94 92 88 97 86 67 43 341 324 340 326 338 348 352 346 350 351 352 341 342 329 326 341 320 309 294 284 283 313 315 309 317 318 310 306 302 294 252 250 226 218 186 197
111 88 62 26 15 11 19 1 11 86 251 59 40 354 346 344 337 298 298 334 330 330 325 327 351 354 344 342 329 317 313 317 322 319 308 302 292 292 260 215 202 182 200
104 116 16 346 1 356 10 194 65 93 80 112 123 351 325 261 309 330 339 338 12 5 16 1 349 346 347 341 338 333 343 341 336 326 308 308 319 282 284 265 212 199 184
33 146 244 6 356 359 48 35 22 10 50 40 3 4 4 287 325 6 19 41 24 21 17 359 352 349 341 338 338 339 333 330 327 343 328 320 332 314 290 273 244 220 186
319 312 355 78 86 59 53 81 76 60 70 3 319 358 359 18 54 47 28 25 13 22 16 359 350 350 345 341 347 342 335 340 349 344 344 335 331 326 311 270 227 167 136
264 204 133 112 89 116 100 82 86 96 74 37 351 357 358 9 53 55 43 49 17 17 9 5 2 358 354 351 354 350 349 350 347 348 348 345 329 349 350 14 103 122 119
280 196 133 124 135 113 99 98 101 73 56 30 360 3 346 346 34 41 41 31 27 26 16 14 8 5 0 359 354 351 354 1 359 1 357 356 342 354 21 32 36 83 85
303 236 155 123 147 128 123 139 153 166 175 225 311 298 194 314 3 50 56 40 26 25 18 12 7 4 1 1 354 350 350 352 354 358 359 1 360 4 5 34 72 88 89
359 198 161 150 143 168 136 92 310 302 304 303 315 324 2 127 111 108 79 59 39 36 23 2 1 357 355 348 343 351 353 351 351 352 355 355 9 24 29 39 71 85 97
219 156 144 107 323 193 201 231 261 291 313 310 309 319 10 46 99 75 90 72 47 37 24 8 356 352 353 343 338 340 340 339 329 332 347 4 11 23 39 60 58 88 105
46 67 93 57 203 285 308 283 352 350 22 44 58 52 54 52 42 53 75 70 50 40 31 19 8 360 347 347 344 345 350 338 319 329 352 20 27 25 37 68 88 82 94
43 39 39 25 26 26 42 72 75 69 69 59 57 58 53 55 36 12 35 56 42 38 30 20 13 2 357 350 350 347 342 338 347 328 354 20 53 41 52 78 103 102 94
51 50 46 43 43 42 33 42 55 56 56 61 59 56 53 45 31 22 39 36 31 25 20 15 7 5 359 351 347 336 337 343 348 343 355 16 32 59 60 71 82 107 132